Regional Weather Roundup
Issued by NWS

Home | Current Version | Previous Version | Text Only | Print | Product List | Glossary Off
Versions: 1 2 3 4 5 6 7 8 9 10 11 12 13 14 15 16 17 18 19 20 21 22 23 24 25 26 27 28 29 30 31 32 33 34 35 36 37 38 39 40 41 42 43 44 45 46 47 48 49 50

000
ASUS43 KTOP 281108
RWRKS

WEATHER ROUNDUP FOR KANSAS
NATIONAL WEATHER SERVICE GOODLAND KS
600 AM CDT FRI APR 28 2017

NOTE:  "FAIR" INDICATES FEW OR NO CLOUDS BELOW 12,000 FEET WITH NO
SIGNIFICANT WEATHER AND/OR OBSTRUCTIONS TO VISIBILITY.

KSZ001>006-013>018-027>032-041>047-281200-
NORTHWEST KANSAS

CITY           SKY/WX    TMP DP  RH WIND       PRES   REMARKS
GOODLAND       CLEAR     35  33  92 W12       29.60S WCI  27
HAYS           CLOUDY    47  46  97 SE5       29.59R
HILL CITY      CLOUDY    46  46 100 SE5       29.59S FOG
RUSSELL        CLOUDY    48  47  96 VRB6      29.57R
$$

KSZ061>065-074>080-084>089-281200-
SOUTHWEST KANSAS

CITY           SKY/WX    TMP DP  RH WIND       PRES   REMARKS
DODGE CITY     CLEAR     42  41  96 NW7       29.58F
ELKHART          N/A     40  35  83 W7          N/A
GARDEN CITY    CLEAR     38  36  92 W12       29.61F WCI  30
GREAT BEND     CLOUDY    50  49  96 S3        29.59R
LIBERAL        CLEAR     42  40  92 NW16      29.62S
PRATT          MOCLDY    47  46  95 SE6       29.57S
$$

KSZ066>073-081>083-090>101-281200-
SOUTHEAST KANSAS

CITY           SKY/WX    TMP DP  RH WIND       PRES   REMARKS
CHANUTE        LGT RAIN  56  53  90 SE17      29.60F
COFFEYVILLE    RAIN      57  55  93 E5        29.64F
HUTCHINSON     CLOUDY    52  48  86 E5        29.58R
MEDICINE LODGE   N/A     51  49  92 E3        29.57R
NEWTON         CLOUDY    52  49  89 E5        29.59R
PARSONS        RAIN      57  54  89 SE9       29.64R
WICHITA INTL   CLOUDY    51  50  96 N6        29.57S
WICHITA JABRA  MOCLDY    50  49  96 NW5       29.58R
WICHITA MCCONL MOCLDY    52  49  91 CALM      29.57R
WINFIELD       PTCLDY    59  52  77 S18G29    29.57R
$$

KSZ007>012-019>026-033>040-048>060-102>105-281200-
NORTHEAST KANSAS

CITY           SKY/WX    TMP DP  RH WIND       PRES   REMARKS
CONCORDIA      LGT RAIN  47  47 100 E14       29.61F
EMPORIA        CLOUDY    51  50  96 E8        29.59F
LAWRENCE       LGT RAIN  51  50  96 E10       29.66F FOG
MANHATTAN      CLOUDY    50  48  93 E12       29.61F
MARYSVILLE     RAIN      46  46 100 E14G21    29.66F
OLATHE IND     LGT RAIN  50  49  96 E12       29.65F
OLATHE EXE     LGT RAIN  49  49 100 NE10      29.65F
SALINA         CLOUDY    51  48  89 E9        29.59S
TOPEKA BILLARD LGT RAIN  50  50 100 E14       29.62F
TOPEKA FORBES  LGT RAIN  52  50  93 E16G23    29.62F
$$




USA.gov is the U.S. government's official web portal to all federal, state and local government web resources and services.